Location: Gleizolles
(44.4833°N, 6.7667°E)
Time: 13:43:51
(UTC+00:00)

A-11 Canister half - Pass Details

Date: 22 June 2024
Orbit: 1515 x 1684 km, 47.2° (Epoch: 24 July)

Event Time Altitude Azimuth Distance (km) Brightness Sun altitude
Rises 23:12:26 0° 294° (WNW) 4,871 12.0 -21.9°
Reaches altitude 10° 23:15:41 10° 290° (WNW) 3,860 11.4 -21.9°
Maximum altitude 23:25:07 55° 217° (SW) 1,851 9.1 -22.1°
Enters shadow 23:29:52 30° 155° (SSE) 2,502 9.6 -22.1°
